Location: Ladysmith
(45.4630°N, 91.1040°W)
Time: 05:28:10
(UTC-05:00)

Amateur Radio Satellites - All Passes

Search period start: 05 May 2016 04:58
Search period end: 06 May 2016 04:58
Location: Ladysmith, 45.4630°N, 91.1040°W

Satellite Date Start Highest point End Downlink Frequencies (MHz)
Time Altitude Azimuth
MOZHAYETS 4 05 May 05:04:18 05:08:13 28° 265° (W) 05:12:10
CUBESAT XI-V 05 May 05:18:25 05:22:52 52° 72° (ENE) 05:27:23 437.345
Gurwin Techsat 1B 05 May 05:20:06 05:22:21 13° 305° (NW) 05:24:36 435.225
Cosmos 2491 05 May 05:37:41 05:44:22 25° 79° (E) 05:51:04 435.465 / 435.565
AO-7 05 May 05:52:44 06:00:56 64° 295° (WNW) 06:09:08 29.400- 29.500
HORYU 2 05 May 05:58:11 06:02:39 83° 105° (ESE) 06:07:03 437.375
STRAND 1 05 May 06:01:51 06:05:14 18° 59° (ENE) 06:08:36 437.568
SO-50 05 May 06:04:50 06:08:19 20° 111° (ESE) 06:11:49 436.795
ISS 05 May 06:09:38 06:11:34 15° 134° (SE) 06:13:31 145.825
LilacSat-2 05 May 06:15:09 06:15:54 10° 89° (E) 06:16:40 437.200
AIST 2 05 May 06:22:23 06:25:10 18° 248° (WSW) 06:27:56 435.215
CUTE-I 05 May 06:35:26 06:39:46 25° 93° (E) 06:44:05 437.470
GOMX 1 05 May 06:37:11 06:40:06 15° 86° (E) 06:42:58 467.674
RS-15 05 May 06:40:11 06:52:31 89° 239° (WSW) 07:04:53 29.354- 29.394
Cosmos 2504 05 May 06:40:26 06:47:19 35° 70° (ENE) 06:54:36 435.465 / 435.565
YUBILEINY 05 May 06:45:08 06:53:46 70° 267° (W) 07:02:24 435.215
CUBESAT XI-V 05 May 06:57:26 07:00:34 18° 269° (W) 07:03:45 437.345
NOAA 15 05 May 07:08:40 07:14:00 70° 103° (ESE) 07:19:18 137.62
NOAA 18 05 May 07:09:42 07:15:07 61° 102° (ESE) 07:20:30 137.9125
PRISM 05 May 07:11:24 07:13:32 14° 61° (ENE) 07:15:40 437.425
BRITE-PL 05 May 07:14:55 07:20:37 62° 100° (E) 07:26:08 437.365/2234.400
Cubesat XI-IV 05 May 07:20:05 07:25:22 60° 101° (ESE) 07:30:38 437.490
Cosmos 2491 05 May 07:31:24 07:40:15 77° 280° (W) 07:49:09 435.465 / 435.565
HO-68 05 May 07:32:32 07:34:34 11° 84° (E) 07:36:37 435.675
HORYU 2 05 May 07:36:45 07:38:33 12° 302° (WNW) 07:40:20 437.375
STRAND 1 05 May 07:38:48 07:43:52 69° 257° (WSW) 07:48:59 437.568
SO-50 05 May 07:43:29 07:48:22 65° 309° (NW) 07:53:16 436.795
ISS 05 May 07:44:21 07:47:38 86° 334° (NNW) 07:50:55 145.825
LilacSat-2 05 May 07:46:52 07:50:39 62° 286° (WNW) 07:54:22 437.200
AO-7 05 May 07:47:08 07:52:10 18° 317° (NW) 07:57:12 29.400- 29.500
DOVE 4 05 May 07:56:25 08:01:10 37° 96° (E) 08:05:38 437.250
CUTE 1.7 + AOD 2 05 May 08:06:32 08:08:27 13° 89° (E) 08:10:21 437.475
M-CUBED/EXP-1 PRIME 05 May 08:11:22 08:15:08 44° 104° (ESE) 08:18:35 437.505
GOMX 1 05 May 08:13:24 08:18:53 81° 285° (WNW) 08:24:05 467.674
CUTE-I 05 May 08:14:57 08:20:03 48° 291° (WNW) 08:25:08 437.470
CINEMA 3 05 May 08:21:01 08:24:24 20° 91° (E) 08:27:41 145.822/145.860
AUBIESAT-1 05 May 08:27:36 08:31:25 56° 105° (ESE) 08:34:56 437.475
COMPASS 1 05 May 08:27:51 08:29:08 11° 88° (E) 08:30:26 437.405
SEEDS 05 May 08:28:18 08:30:57 16° 91° (E) 08:33:35 437.485
Cosmos 2504 05 May 08:33:36 08:40:55 52° 269° (W) 08:48:44 435.465 / 435.565
PRISM 05 May 08:44:19 08:48:21 62° 258° (WSW) 08:52:27 437.425
YUBILEINY 05 May 08:44:50 08:48:51 14° 288° (WNW) 08:52:52 435.215
NOAA 15 05 May 08:49:35 08:53:13 19° 301° (WNW) 08:56:52 137.62
CUBEBUG 2 05 May 08:51:01 08:52:55 13° 88° (E) 08:54:46 437.445
NOAA 18 05 May 08:51:14 08:55:20 22° 301° (WNW) 08:59:26 137.9125
RS-15 05 May 08:54:01 09:03:26 27° 259° (W) 09:12:53 29.354- 29.394
BRITE-PL 05 May 08:54:11 08:58:36 24° 298° (WNW) 09:02:57 437.365/2234.400
AAUSAT CUBESAT 2 05 May 08:54:38 08:57:31 18° 92° (E) 09:00:24 437.432
Cubesat XI-IV 05 May 09:01:04 09:05:00 22° 300° (WNW) 09:08:58 437.490
CANX-2 05 May 09:08:12 09:12:25 66° 101° (ESE) 09:16:37 2200.000
ANTELSAT 05 May 09:08:43 09:11:00 14° 60° (ENE) 09:13:16 437.575/2403.000
PHONESAT 2.4 05 May 09:12:47 09:14:27 14° 156° (SSE) 09:16:07 2401.200-2431.200
HO-68 05 May 09:16:30 09:23:38 66° 103° (ESE) 09:30:45 435.675
ISS 05 May 09:21:28 09:24:24 29° 350° (N) 09:27:20 145.825
SO-50 05 May 09:26:45 09:29:48 16° 330° (NNW) 09:32:51 436.795
Cosmos 2491 05 May 09:32:58 09:38:46 19° 304° (NW) 09:44:38 435.465 / 435.565
DOVE 4 05 May 09:34:18 09:38:43 30° 295° (WNW) 09:42:55 437.250
Oscar 11 05 May 09:37:46 09:41:09 22° 93° (E) 09:44:32 145.826/435.025
CUTE 1.7 + AOD 2 05 May 09:40:31 09:44:43 63° 286° (WNW) 09:48:53 437.475
DELFI C3 05 May 09:46:33 09:48:23 13° 90° (E) 09:50:12 145.870
M-CUBED/EXP-1 PRIME 05 May 09:46:44 09:49:20 17° 304° (NW) 09:51:46 437.505
FUNcube-1 05 May 09:53:17 09:56:48 25° 94° (E) 10:00:15 145.935
GOMX 1 05 May 09:53:23 09:56:02 14° 304° (NW) 09:58:39 467.674
CINEMA 3 05 May 09:57:25 10:01:49 44° 290° (WNW) 10:06:00 145.822/145.860
UNISAT 6 05 May 10:00:42 10:05:01 41° 70° (ENE) 10:09:17 437.425
COMPASS 1 05 May 10:01:01 10:05:11 70° 285° (WNW) 10:09:20 437.405
SEEDS 05 May 10:02:53 10:06:56 49° 288° (WNW) 10:10:59 437.485
AUBIESAT-1 05 May 10:03:23 10:05:25 14° 305° (NW) 10:07:23 437.475
AIST 1 05 May 10:06:23 10:07:03 10° 63° (ENE) 10:07:43
QB50P2 05 May 10:08:15 10:09:37 11° 59° (ENE) 10:10:58 145.880/145.840
POLYITAN 1 05 May 10:10:20 10:11:48 12° 59° (ENE) 10:13:16 437.675
POPSAT HIP 1 05 May 10:12:06 10:13:38 12° 59° (ENE) 10:15:10 437.405
UWE-3 05 May 10:12:18 10:16:32 65° 101° (ESE) 10:20:39 435.000/436.395/437.385
QB50P1 05 May 10:14:41 10:16:32 13° 60° (ENE) 10:18:24 145.935-145.965
TIGRISAT 05 May 10:17:01 10:21:32 56° 72° (ENE) 10:25:59 435.000
CUBEBUG 2 05 May 10:25:45 10:30:02 63° 286° (WNW) 10:34:11 437.445
AAUSAT CUBESAT 2 05 May 10:29:17 10:33:13 42° 289° (WNW) 10:37:09 437.432
GONETS M04 05 May 10:33:44 10:41:20 31° 65° (ENE) 10:48:49
ZACube-1 05 May 10:36:38 10:40:52 81° 103° (ESE) 10:45:00 437.345
Cosmos 2499 05 May 10:39:05 10:44:10 18° 60° (ENE) 10:49:27 435.465 / 435.565
ANTELSAT 05 May 10:42:30 10:47:08 78° 258° (WSW) 10:51:42 437.575/2403.000
CANX-2 05 May 10:45:37 10:47:46 14° 299° (WNW) 10:49:54 2200.000
NANOSAT C BR1 05 May 10:46:02 10:49:28 24° 66° (ENE) 10:52:55 145.865
PHONESAT 2.4 05 May 10:47:57 10:50:45 29° 172° (S) 10:53:33 2401.200-2431.200
JAS-2 05 May 10:54:41 10:55:38 10° 43° (NE) 10:56:37 435.910
ISS 05 May 10:58:30 11:01:28 30° 11° (N) 11:04:24 145.825
HO-68 05 May 11:04:57 11:10:52 29° 303° (WNW) 11:16:47 435.675
Oscar 11 05 May 11:13:26 11:17:24 37° 290° (WNW) 11:21:22 145.826/435.025
HUMSAT D 05 May 11:15:31 11:19:32 54° 100° (E) 11:23:32 437.325/437.525
DELFI C3 05 May 11:19:41 11:23:37 57° 287° (WNW) 11:27:32 145.870
AO-85 05 May 11:26:33 11:30:16 19° 109° (ESE) 11:33:58 145.980
FUNcube-1 05 May 11:29:24 11:33:03 30° 292° (WNW) 11:36:40 145.935
DUCHIFAT 1 05 May 11:36:05 11:40:19 74° 76° (ENE) 11:44:36 145.980
AISAT 05 May 11:37:44 11:40:19 15° 90° (E) 11:42:53 437.250
UNISAT 6 05 May 11:38:13 11:41:53 23° 267° (W) 11:45:30 437.425
QB50P2 05 May 11:40:27 11:44:45 86° 253° (WSW) 11:49:05 145.880/145.840
AIST 1 05 May 11:40:54 11:45:21 88° 261° (W) 11:49:45
POLYITAN 1 05 May 11:42:40 11:46:58 85° 257° (WSW) 11:51:17 437.675
POPSAT HIP 1 05 May 11:44:28 11:48:46 83° 256° (WSW) 11:53:05 437.405
QB50P1 05 May 11:47:26 11:51:43 77° 258° (WSW) 11:56:02 145.935-145.965
UWE-3 05 May 11:50:19 11:52:28 14° 299° (WNW) 11:54:36 435.000/436.395/437.385
TIGRISAT 05 May 11:55:34 11:58:33 17° 269° (W) 12:01:30 435.000
50 SAT 05 May 12:00:05 12:03:08 24° 95° (E) 12:06:10 437.505
CUBEBUG 1 05 May 12:05:33 12:09:21 27° 95° (E) 12:13:07 437.445
BUGSAT 1 05 May 12:05:56 12:10:11 77° 75° (ENE) 12:14:28 437.445
ESTCUBE 1 05 May 12:06:42 12:10:58 39° 98° (E) 12:15:12 437.505/2401.250
ZACube-1 05 May 12:15:13 12:16:30 11° 301° (WNW) 12:17:48 437.345
NANOSAT C BR1 05 May 12:21:08 12:25:03 35° 263° (W) 12:28:59 145.865
PHONESAT 2.4 05 May 12:24:26 12:27:13 29° 189° (S) 12:30:00 2401.200-2431.200
DX 1 05 May 12:27:13 12:31:21 39° 98° (E) 12:35:27 434.975-435.025
UKube-1 05 May 12:28:26 12:32:23 33° 97° (E) 12:36:17 .
GONETS M04 05 May 12:30:10 12:38:48 65° 268° (W) 12:47:21
Cosmos 2499 05 May 12:30:41 12:38:29 81° 81° (E) 12:46:53 435.465 / 435.565
JAS-2 05 May 12:32:52 12:38:46 46° 65° (ENE) 12:45:27 435.910
ISS 05 May 12:34:55 12:38:11 86° 215° (SW) 12:41:28 145.825
VELOX 1 05 May 12:40:10 12:44:37 61° 101° (E) 12:49:02 145.980
HUMSAT D 05 May 12:52:23 12:54:45 15° 298° (WNW) 12:57:06 437.325/437.525
SPROUT 05 May 12:52:54 12:56:49 33° 97° (E) 13:00:40 437.525
SO-50 05 May 12:54:08 12:55:21 11° 20° (NNE) 12:56:32 436.795
Oscar 19 05 May 13:04:00 13:08:56 47° 69° (ENE) 13:13:55 437.125/150
AO-85 05 May 13:04:46 13:10:15 77° 307° (NW) 13:15:39 145.980
AISAT 05 May 13:12:46 13:17:12 60° 287° (WNW) 13:21:34 437.250
AO-7 05 May 13:14:22 13:18:33 15° 40° (NE) 13:22:43 29.400- 29.500
DUCHIFAT 1 05 May 13:15:16 13:16:32 11° 272° (W) 13:17:50 145.980
TISAT 1 05 May 13:16:47 13:19:43 18° 92° (E) 13:22:37 437.305
Gurwin Techsat 1B 05 May 13:22:19 13:26:56 31° 64° (ENE) 13:31:32 435.225
50 SAT 05 May 13:33:52 13:36:52 24° 292° (WNW) 13:39:53 437.505
CUBEBUG 1 05 May 13:41:41 13:45:39 32° 292° (WNW) 13:49:35 437.445
ESTCUBE 1 05 May 13:43:56 13:47:35 24° 295° (WNW) 13:51:14 437.505/2401.250
BUGSAT 1 05 May 13:45:07 13:46:06 11° 272° (W) 13:47:05 437.445
PHONESAT 2.4 05 May 14:01:59 14:03:30 13° 205° (SSW) 14:05:02 2401.200-2431.200
DX 1 05 May 14:03:52 14:07:20 23° 296° (WNW) 14:10:47 434.975-435.025
UKube-1 05 May 14:04:41 14:08:18 26° 294° (WNW) 14:11:54 .
ISS 05 May 14:12:33 14:14:12 13° 227° (SW) 14:15:51 145.825
VELOX 1 05 May 14:17:51 14:20:38 16° 299° (WNW) 14:23:23 145.980
JAS-2 05 May 14:18:27 14:24:00 35° 268° (W) 14:30:15 435.910
O/OREOS (USA 219) 05 May 14:20:46 14:25:00 38° 107° (ESE) 14:29:15 437.305
Cosmos 2499 05 May 14:25:12 14:30:46 22° 280° (W) 14:36:37 435.465 / 435.565
ITAMSAT 1 05 May 14:28:58 14:33:57 50° 70° (ENE) 14:38:57 435.822/435.867
SPROUT 05 May 14:29:06 14:32:38 25° 294° (WNW) 14:36:09 437.525
GONETS M04 05 May 14:30:24 14:33:44 13° 289° (WNW) 14:37:05
SO-50 05 May 14:32:56 14:37:19 34° 43° (NE) 14:41:32 436.795
ITUPSAT 1 05 May 14:35:07 14:38:58 24° 94° (E) 14:42:47 437.325
SWISSCUBE 05 May 14:42:38 14:46:53 31° 96° (E) 14:51:06 437.505
Oscar 19 05 May 14:44:18 14:48:28 24° 267° (W) 14:52:42 437.125/150
AO-85 05 May 14:47:39 14:51:36 20° 327° (NNW) 14:55:28 145.980
TISAT 1 05 May 14:51:34 14:55:36 44° 290° (WNW) 14:59:35 437.305
PCSat 05 May 14:57:14 15:02:03 34° 111° (ESE) 15:06:54 145.827
AO-7 05 May 15:01:33 15:09:30 54° 62° (ENE) 15:17:29 29.400- 29.500
Gurwin Techsat 1B 05 May 15:01:47 15:06:45 40° 262° (W) 15:11:45 435.225
CUSAT 1 05 May 15:12:52 15:16:36 62° 96° (E) 15:21:36 437.405
BEESAT 05 May 15:15:11 15:19:54 58° 101° (E) 15:24:35 436.000
HORYU 2 05 May 15:24:35 15:26:34 13° 59° (ENE) 15:28:32 437.375
Cosmos 2491 05 May 15:44:29 15:48:52 14° 51° (NE) 15:53:13 435.465 / 435.565
O/OREOS (USA 219) 05 May 16:00:35 16:04:30 27° 305° (NW) 16:08:25 437.305
ITAMSAT 1 05 May 16:09:40 16:13:41 23° 267° (W) 16:17:45 435.822/435.867
ITUPSAT 1 05 May 16:12:28 16:16:58 42° 291° (WNW) 16:21:27 437.325
SO-50 05 May 16:13:28 16:17:50 37° 243° (WSW) 16:22:02 436.795
SWISSCUBE 05 May 16:20:25 16:24:39 32° 294° (WNW) 16:28:53 437.505
DANDE 05 May 16:23:52 16:26:58 52° 286° (WNW) 16:30:59 436.750
KKS-1 05 May 16:30:52 16:35:11 46° 99° (E) 16:39:28 437.445
STARS 05 May 16:39:26 16:43:19 30° 96° (E) 16:47:11 437.465
PCSat 05 May 16:40:12 16:45:21 42° 311° (NW) 16:50:31 145.827
BRITE-PL 05 May 16:52:40 16:54:59 13° 55° (NE) 16:57:21 437.365/2234.400
NOAA 15 05 May 16:53:05 16:56:59 21° 60° (ENE) 17:00:54 137.62
BEESAT 05 May 16:53:58 16:57:16 19° 299° (WNW) 17:00:34 436.000
AO-7 05 May 16:54:56 17:02:30 39° 262° (W) 17:10:09 29.400- 29.500
MOZHAYETS 4 05 May 16:56:07 17:00:39 57° 101° (E) 17:05:09
CUSAT 1 05 May 16:57:15 16:59:40 14° 304° (NW) 17:02:25 437.405
HORYU 2 05 May 16:58:01 17:02:30 82° 256° (WSW) 17:06:59 437.375
NOAA 18 05 May 16:59:26 17:03:40 23° 60° (ENE) 17:07:53 137.9125
Cubesat XI-IV 05 May 17:06:32 17:10:12 19° 59° (ENE) 17:13:52 437.490
CUBESAT XI-V 05 May 17:14:58 17:16:25 11° 87° (E) 17:17:52 437.345
M-CUBED/EXP-1 PRIME 05 May 17:27:10 17:29:28 14° 54° (NE) 17:31:43 437.505
Cosmos 2491 05 May 17:39:10 17:47:56 61° 76° (ENE) 17:56:34 435.465 / 435.565
AUBIESAT-1 05 May 17:42:37 17:45:17 15° 55° (NE) 17:47:54 437.475
GOMX 1 05 May 17:46:43 17:50:29 21° 61° (ENE) 17:54:24 467.674
YUBILEINY 05 May 17:53:37 18:00:47 30° 82° (E) 18:07:54 435.215
CUTE-I 05 May 17:59:11 18:04:18 50° 69° (ENE) 18:09:26 437.470
HO-68 05 May 18:04:12 18:07:41 14° 46° (NE) 18:11:10 435.675
KKS-1 05 May 18:08:08 18:11:27 21° 297° (WNW) 18:14:45 437.445
BEESAT 3 05 May 18:09:01 18:12:51 53° 121° (ESE) 18:16:43 437.485
STARS 05 May 18:15:49 18:19:38 29° 294° (WNW) 18:23:25 437.465
AO-85 05 May 18:16:22 18:17:13 10° 16° (NNE) 18:18:03 145.980
BEESAT 2 05 May 18:22:31 18:26:18 43° 119° (ESE) 18:30:07 435.950
BRITE-PL 05 May 18:27:30 18:32:28 80° 74° (ENE) 18:37:53 437.365/2234.400
PCSat 05 May 18:28:11 18:30:16 12° 334° (NNW) 18:32:21 145.827
LilacSat-2 05 May 18:30:28 18:34:22 85° 76° (ENE) 18:38:15 437.200
NOAA 15 05 May 18:31:07 18:36:19 61° 258° (WSW) 18:41:35 137.62
MOZHAYETS 4 05 May 18:34:21 18:37:24 18° 298° (WNW) 18:40:26
NOAA 18 05 May 18:38:29 18:43:54 59° 258° (WSW) 18:49:21 137.9125
Cubesat XI-IV 05 May 18:44:26 18:49:44 69° 257° (WSW) 18:55:04 437.490
CUBESAT XI-V 05 May 18:49:42 18:54:26 85° 284° (WNW) 18:59:08 437.345
M-CUBED/EXP-1 PRIME 05 May 18:58:39 19:03:22 88° 76° (ENE) 19:08:00 437.505
CUTE 1.7 + AOD 2 05 May 19:01:50 19:03:50 13° 61° (ENE) 19:05:51 437.475
DOVE 4 05 May 19:03:02 19:08:00 48° 70° (ENE) 19:13:06 437.250
AUBIESAT-1 05 May 19:14:35 19:19:14 78° 253° (WSW) 19:23:45 437.475
COMPASS 1 05 May 19:21:28 19:22:44 11° 60° (ENE) 19:24:00 437.405
SEEDS 05 May 19:22:39 19:25:10 16° 63° (ENE) 19:27:42 437.485
GOMX 1 05 May 19:22:55 19:28:01 64° 260° (W) 19:33:25 467.674
Cosmos 2504 05 May 19:23:34 19:29:05 24° 82° (E) 19:34:35 435.465 / 435.565
CINEMA 3 05 May 19:23:56 19:28:08 27° 66° (ENE) 19:32:18 145.822/145.860
Cosmos 2491 05 May 19:36:45 19:44:13 32° 278° (W) 19:51:38 435.465 / 435.565
CUTE-I 05 May 19:40:24 19:44:37 24° 267° (W) 19:48:51 437.470
HO-68 05 May 19:47:01 19:54:00 61° 67° (ENE) 20:01:02 435.675
STRAND 1 05 May 19:47:13 19:51:51 34° 96° (E) 19:56:28 437.568
AAUSAT CUBESAT 2 05 May 19:47:30 19:50:09 17° 63° (ENE) 19:52:50 437.432
BEESAT 3 05 May 19:47:48 19:50:50 21° 320° (NW) 19:53:53 437.485
YUBILEINY 05 May 19:48:14 19:56:54 66° 283° (WNW) 20:05:36 435.215
CUBEBUG 2 05 May 19:50:40 19:53:41 17° 62° (ENE) 19:56:40 437.445
AO-85 05 May 19:55:07 19:59:26 29° 40° (NE) 20:03:25 145.980
BEESAT 2 05 May 20:01:02 20:04:20 24° 318° (NW) 20:07:38 435.950
ZACube-1 05 May 20:02:05 20:02:52 10° 58° (ENE) 20:03:38 437.345
CANX-2 05 May 20:02:49 20:06:57 61° 74° (ENE) 20:11:08 2200.000
BRITE-PL 05 May 20:09:04 20:11:42 14° 275° (W) 20:14:26 437.365/2234.400
AIST 2 05 May 20:20:25 20:24:27 54° 121° (ESE) 20:28:31 435.215
PRISM 05 May 20:24:51 20:27:19 15° 91° (E) 20:29:45 437.425
CUBESAT XI-V 05 May 20:29:25 20:31:03 12° 302° (WNW) 20:32:42 437.345
Oscar 11 05 May 20:34:43 20:38:08 23° 66° (ENE) 20:41:34 145.826/435.025
CUTE 1.7 + AOD 2 05 May 20:34:58 20:39:09 69° 259° (W) 20:43:22 437.475
DELFI C3 05 May 20:35:57 20:37:05 11° 60° (ENE) 20:38:14 145.870
M-CUBED/EXP-1 PRIME 05 May 20:36:45 20:38:25 12° 266° (W) 20:40:04 437.505
DOVE 4 05 May 20:41:40 20:45:54 25° 269° (W) 20:50:14 437.250
FUNcube-1 05 May 20:50:37 20:54:27 29° 68° (ENE) 20:58:14 145.935
COMPASS 1 05 May 20:53:34 20:57:41 80° 258° (WSW) 21:01:51 437.405
SEEDS 05 May 20:56:24 21:00:28 54° 260° (W) 21:04:35 437.485
CINEMA 3 05 May 21:00:19 21:05:03 41° 263° (W) 21:09:48 145.822/145.860
RS-15 05 May 21:06:06 21:16:41 49° 110° (ESE) 21:27:47 29.354- 29.394
UWE-3 05 May 21:10:42 21:15:17 70° 74° (ENE) 21:19:48 435.000/436.395/437.385
Cosmos 2504 05 May 21:14:41 21:21:49 64° 282° (WNW) 21:28:59 435.465 / 435.565
AAUSAT CUBESAT 2 05 May 21:21:19 21:25:18 48° 261° (W) 21:29:18 437.432
CUBEBUG 2 05 May 21:25:11 21:29:52 62° 259° (W) 21:34:28 437.445
STRAND 1 05 May 21:26:26 21:30:59 33° 294° (WNW) 21:35:33 437.568
ZACube-1 05 May 21:33:56 21:38:26 82° 75° (ENE) 21:42:53 437.345
AO-85 05 May 21:35:33 21:40:09 46° 242° (WSW) 21:44:19 145.980
HO-68 05 May 21:36:06 21:42:08 29° 266° (W) 21:48:13 435.675
CANX-2 05 May 21:41:13 21:43:13 13° 271° (W) 21:45:15 2200.000
YUBILEINY 05 May 21:50:59 21:55:43 15° 307° (NW) 22:00:27 435.215
PRISM 05 May 21:58:52 22:02:57 52° 288° (WNW) 22:07:00 437.425
AIST 2 05 May 21:59:59 22:03:14 22° 320° (NW) 22:06:31 435.215
PCSat 05 May 22:00:20 22:02:43 13° 28° (NNE) 22:05:06 145.827
DELFI C3 05 May 22:07:27 22:11:23 75° 258° (WSW) 22:15:21 145.870
HUMSAT D 05 May 22:08:36 22:12:40 50° 73° (ENE) 22:16:42 437.325/437.525
Oscar 11 05 May 22:10:06 22:14:05 36° 263° (W) 22:18:05 145.826/435.025
FUNcube-1 05 May 22:26:39 22:30:38 31° 264° (W) 22:34:33 145.935
ANTELSAT 05 May 22:33:08 22:36:04 18° 91° (E) 22:38:57 437.575/2403.000
AISAT 05 May 22:37:10 22:40:16 19° 62° (ENE) 22:43:24 437.250
50 SAT 05 May 22:41:30 22:43:54 17° 65° (ENE) 22:46:19 437.505
UWE-3 05 May 22:49:55 22:52:11 13° 271° (W) 22:54:27 435.000/436.395/437.385
O/OREOS (USA 219) 05 May 22:50:09 22:52:51 15° 48° (NE) 22:55:31 437.305
CUBEBUG 1 05 May 23:03:32 23:07:21 30° 67° (ENE) 23:11:13 437.445
ESTCUBE 1 05 May 23:08:11 23:12:27 46° 71° (ENE) 23:16:46 437.505/2401.250
ZACube-1 05 May 23:14:11 23:15:16 11° 272° (W) 23:16:20 437.345
Cosmos 2504 05 May 23:14:23 23:16:55 12° 306° (NW) 23:19:28 435.465 / 435.565
RS-15 05 May 23:17:37 23:28:54 61° 316° (NW) 23:40:53 29.354- 29.394
DX 1 05 May 23:24:35 23:28:45 45° 70° (ENE) 23:32:57 434.975-435.025
UKube-1 05 May 23:24:54 23:28:53 37° 69° (ENE) 23:32:54 .
QB50P2 05 May 23:24:57 23:26:59 13° 89° (E) 23:29:01 145.880/145.840
UNISAT 6 05 May 23:26:37 23:30:56 64° 101° (ESE) 23:35:09 437.425
POLYITAN 1 05 May 23:27:07 23:29:12 13° 90° (E) 23:31:17 437.675
POPSAT HIP 1 05 May 23:28:44 23:30:53 14° 90° (E) 23:33:00 437.405
QB50P1 05 May 23:31:24 23:33:49 15° 90° (E) 23:36:13 145.935-145.965
GONETS M04 05 May 23:38:15 23:45:45 32° 83° (E) 23:53:13
VELOX 1 05 May 23:39:18 23:43:42 71° 74° (ENE) 23:48:11 145.980
PCSat 05 May 23:42:19 23:47:33 46° 50° (NE) 23:52:45 145.827
TIGRISAT 05 May 23:42:57 23:47:17 90° 286° (WNW) 23:51:32 435.000
HUMSAT D 05 May 23:46:02 23:48:36 16° 269° (W) 23:51:08 437.325/437.525
SPROUT 05 May 23:48:28 23:52:22 34° 68° (ENE) 23:56:16 437.525
CUSAT 1 06 May 00:01:39 00:05:53 16° 58° (ENE) 00:10:20 437.405
NANOSAT C BR1 06 May 00:03:14 00:06:59 30° 96° (E) 00:10:42 145.865
ANTELSAT 06 May 00:08:55 00:13:03 46° 289° (WNW) 00:17:08 437.575/2403.000
TISAT 1 06 May 00:10:41 00:13:43 19° 64° (ENE) 00:16:46 437.305
AISAT 06 May 00:12:03 00:16:23 51° 260° (W) 00:20:46 437.250
AIST 1 06 May 00:12:16 00:16:25 47° 93° (E) 00:20:37
50 SAT 06 May 00:14:03 00:17:26 36° 262° (W) 00:20:51 437.505
O/OREOS (USA 219) 06 May 00:28:18 00:32:51 77° 247° (WSW) 00:37:19 437.305
CUBEBUG 1 06 May 00:39:47 00:43:36 29° 265° (W) 00:47:29 437.445
ESTCUBE 1 06 May 00:46:17 00:49:30 19° 268° (W) 00:52:46 437.505/2401.250
BEESAT 3 06 May 00:48:08 00:49:46 12° 32° (NNE) 00:51:23 437.485
BEESAT 06 May 00:49:29 00:51:16 12° 56° (ENE) 00:53:04 436.000
DUCHIFAT 1 06 May 00:53:41 00:57:55 81° 286° (WNW) 01:02:06 145.980
QB50P2 06 May 00:59:01 01:03:14 61° 286° (WNW) 01:07:23 145.880/145.840
POLYITAN 1 06 May 01:01:14 01:05:26 60° 287° (WNW) 01:09:34 437.675
UKube-1 06 May 01:01:38 01:05:03 22° 266° (W) 01:08:29 .
DX 1 06 May 01:02:02 01:05:10 19° 267° (W) 01:08:20 434.975-435.025
BEESAT 2 06 May 01:02:28 01:03:40 11° 30° (NNE) 01:04:52 435.950
POPSAT HIP 1 06 May 01:02:53 01:07:05 59° 287° (WNW) 01:11:12 437.405
UNISAT 6 06 May 01:04:48 01:07:08 14° 299° (WNW) 01:09:27 437.425
QB50P1 06 May 01:05:47 01:09:57 54° 288° (WNW) 01:14:03 145.935-145.965
Cosmos 2499 06 May 01:10:25 01:17:19 61° 93° (E) 01:24:21 435.465 / 435.565
DANDE 06 May 01:14:17 01:19:44 25° 67° (ENE) 01:25:58 436.750
Oscar 19 06 May 01:14:54 01:17:28 14° 88° (E) 01:20:02 437.125/150
VELOX 1 06 May 01:18:44 01:20:41 13° 271° (W) 01:22:39 145.980
BUGSAT 1 06 May 01:20:58 01:25:12 83° 284° (WNW) 01:29:19 437.445
TIGRISAT 06 May 01:22:19 01:23:15 11° 302° (WNW) 01:24:13 435.000
JAS-2 06 May 01:23:53 01:31:10 39° 94° (E) 01:38:19 435.910
SPROUT 06 May 01:24:49 01:28:22 25° 266° (W) 01:31:57 437.525
PCSat 06 May 01:26:03 01:30:46 30° 250° (WSW) 01:35:26 145.827
GONETS M04 06 May 01:33:17 01:42:01 62° 283° (WNW) 01:50:47
RS-15 06 May 01:34:20 01:44:32 32° 348° (NNW) 01:55:06 29.354- 29.394
NANOSAT C BR1 06 May 01:39:05 01:42:39 27° 293° (WNW) 01:46:10 145.865
CUSAT 1 06 May 01:41:53 01:49:14 65° 76° (ENE) 01:57:16 437.405
ITUPSAT 1 06 May 01:43:49 01:48:07 35° 67° (ENE) 01:52:26 437.325
TISAT 1 06 May 01:45:00 01:49:04 45° 261° (W) 01:53:11 437.305
SWISSCUBE 06 May 01:51:03 01:55:34 46° 70° (ENE) 02:00:07 437.505
AIST 1 06 May 01:51:25 01:54:19 17° 292° (WNW) 01:57:16
BEESAT 06 May 02:23:33 02:28:18 85° 76° (ENE) 02:33:06 436.000
BEESAT 3 06 May 02:24:18 02:28:15 64° 52° (NE) 02:32:10 437.485
BEESAT 2 06 May 02:38:29 02:42:25 54° 51° (NE) 02:46:20 435.950
ITAMSAT 1 06 May 02:40:56 02:43:46 15° 89° (E) 02:46:35 435.822/435.867
Oscar 19 06 May 02:52:12 02:57:27 82° 286° (WNW) 03:02:38 437.125/150
DANDE 06 May 02:56:13 03:03:02 78° 261° (W) 03:11:14 436.750
AIST 2 06 May 03:02:27 03:04:37 14° 33° (NNE) 03:06:47 435.215
AO-7 06 May 03:03:30 03:06:40 12° 84° (E) 03:09:49 29.400- 29.500
Cosmos 2499 06 May 03:05:12 03:10:59 26° 295° (WNW) 03:16:54 435.465 / 435.565
JAS-2 06 May 03:08:46 03:16:16 52° 293° (WNW) 03:23:44 435.910
Gurwin Techsat 1B 06 May 03:15:10 03:20:30 70° 102° (ESE) 03:25:48 435.225
ITUPSAT 1 06 May 03:21:55 03:26:00 28° 265° (W) 03:30:07 437.325
CUSAT 1 06 May 03:24:40 03:31:00 31° 273° (W) 03:37:46 437.405
SWISSCUBE 06 May 03:29:57 03:33:35 22° 267° (W) 03:37:15 437.505
KKS-1 06 May 03:30:43 03:35:06 55° 72° (ENE) 03:39:30 437.445
GONETS M04 06 May 03:36:35 03:41:01 14° 308° (NW) 03:45:28
STARS 06 May 03:37:57 03:42:00 35° 68° (ENE) 03:46:04 437.465
RS-15 06 May 03:50:42 04:01:36 36° 22° (NNE) 04:12:40 29.354- 29.394
MOZHAYETS 4 06 May 03:59:53 04:04:24 69° 74° (ENE) 04:08:57
YUBILEINY 06 May 04:00:22 04:05:36 17° 55° (NE) 04:10:48 435.215
BEESAT 3 06 May 04:03:30 04:05:27 13° 250° (WSW) 04:07:25 437.485
BEESAT 06 May 04:05:08 04:06:43 11° 272° (W) 04:08:19 436.000
BEESAT 2 06 May 04:17:22 04:19:52 16° 249° (WSW) 04:22:23 435.950
ITAMSAT 1 06 May 04:18:38 04:23:50 77° 287° (WNW) 04:29:01 435.822/435.867
CUBESAT XI-V 06 May 04:20:03 04:22:42 15° 60° (ENE) 04:25:23 437.345
Oscar 19 06 May 04:33:33 04:35:57 13° 304° (NW) 04:38:19 437.125/150
AIST 2 06 May 04:39:43 04:43:52 71° 53° (NE) 04:47:59 435.215
DANDE 06 May 04:41:03 04:45:12 17° 277° (W) 04:49:43 436.750
HORYU 2 06 May 04:47:58 04:50:42 16° 91° (E) 04:53:25 437.375
